TimeCST,TemperatureF,Dew PointF,Humidity,Sea Level PressureIn,VisibilityMPH,Wind Direction,Wind SpeedMPH,Gust SpeedMPH,PrecipitationIn,Events,Conditions,WindDirDegrees,DateUTC
12:15 AM,62.6,57.2,82,29.98,10.0,South,5.8,-,N/A,,Clear,190,2012-12-04 06:15:00
12:35 AM,60.8,57.2,88,29.98,10.0,South,6.9,-,N/A,,Clear,180,2012-12-04 06:35:00
12:55 AM,60.8,57.2,88,29.96,10.0,SSE,10.4,-,N/A,,Clear,160,2012-12-04 06:55:00
1:15 AM,62.6,59.0,88,29.96,10.0,South,6.9,-,N/A,,Clear,180,2012-12-04 07:15:00
1:35 AM,62.6,57.2,82,29.96,10.0,South,6.9,-,N/A,,Clear,190,2012-12-04 07:35:00
1:55 AM,62.6,59.0,88,29.97,10.0,South,9.2,-,N/A,,Clear,190,2012-12-04 07:55:00
2:15 AM,62.6,59.0,88,29.97,10.0,South,6.9,-,N/A,,Clear,180,2012-12-04 08:15:00
2:35 AM,62.6,59.0,88,29.97,10.0,Calm,Calm,-,N/A,,Clear,0,2012-12-04 08:35:00
2:55 AM,60.8,57.2,88,29.98,10.0,Calm,Calm,-,N/A,,Clear,0,2012-12-04 08:55:00
3:15 AM,59.0,57.2,94,29.99,10.0,Calm,Calm,-,N/A,,Clear,0,2012-12-04 09:15:00
3:35 AM,60.8,59.0,94,29.99,10.0,SW,3.5,-,N/A,,Scattered Clouds,230,2012-12-04 09:35:00
3:55 AM,60.8,59.0,94,29.99,10.0,Calm,Calm,-,N/A,,Mostly Cloudy,0,2012-12-04 09:55:00
4:15 AM,60.8,59.0,94,29.99,10.0,Calm,Calm,-,N/A,,Overcast,0,2012-12-04 10:15:00
4:35 AM,60.8,59.0,94,29.98,10.0,Calm,Calm,-,N/A,,Mostly Cloudy,0,2012-12-04 10:35:00
4:55 AM,60.8,59.0,94,29.99,10.0,Calm,Calm,-,N/A,,Overcast,0,2012-12-04 10:55:00
5:15 AM,60.8,59.0,94,30.00,10.0,NNW,3.5,-,N/A,,Overcast,330,2012-12-04 11:15:00
5:35 AM,60.8,59.0,94,30.01,10.0,North,4.6,-,N/A,,Overcast,350,2012-12-04 11:35:00
5:55 AM,60.8,57.2,88,30.02,10.0,North,13.8,-,N/A,,Overcast,350,2012-12-04 11:55:00
6:15 AM,60.8,50.0,68,30.04,10.0,WNW,11.5,-,N/A,,Mostly Cloudy,300,2012-12-04 12:15:00
6:35 AM,59.0,46.4,63,30.05,10.0,NNW,11.5,-,N/A,,Mostly Cloudy,340,2012-12-04 12:35:00
6:55 AM,59.0,46.4,63,30.07,10.0,NNW,10.4,-,N/A,,Scattered Clouds,330,2012-12-04 12:55:00
7:15 AM,59.0,46.4,63,30.08,10.0,NW,13.8,19.6,N/A,,Clear,320,2012-12-04 13:15:00
7:35 AM,59.0,46.4,63,30.10,10.0,NW,15.0,23.0,N/A,,Mostly Cloudy,320,2012-12-04 13:35:00
7:55 AM,60.8,46.4,59,30.11,10.0,NW,15.0,-,N/A,,Mostly Cloudy,320,2012-12-04 13:55:00
8:15 AM,60.8,46.4,59,30.12,10.0,NW,17.3,-,N/A,,Overcast,320,2012-12-04 14:15:00
8:35 AM,60.8,46.4,59,30.13,10.0,North,16.1,-,N/A,,Overcast,360,2012-12-04 14:35:00
8:55 AM,60.8,46.4,59,30.13,10.0,North,18.4,23.0,N/A,,Overcast,360,2012-12-04 14:55:00
9:15 AM,60.8,44.6,55,30.15,10.0,North,18.4,-,N/A,,Mostly Cloudy,10,2012-12-04 15:15:00
9:35 AM,60.8,44.6,55,30.16,10.0,NW,15.0,-,N/A,,Scattered Clouds,320,2012-12-04 15:35:00
10:15 AM,60.8,42.8,52,30.18,10.0,NNE,17.3,21.9,N/A,,Clear,20,2012-12-04 16:15:00
10:35 AM,62.6,42.8,48,30.18,10.0,NNW,16.1,21.9,N/A,,Clear,330,2012-12-04 16:35:00
10:55 AM,62.6,42.8,48,30.19,10.0,North,12.7,17.3,N/A,,Clear,350,2012-12-04 16:55:00
11:15 AM,64.4,42.8,45,30.19,10.0,NNW,18.4,25.3,N/A,,Clear,330,2012-12-04 17:15:00
11:35 AM,64.4,41.0,42,30.20,10.0,NNW,16.1,23.0,N/A,,Clear,330,2012-12-04 17:35:00
11:55 AM,66.2,41.0,40,30.19,10.0,NNW,12.7,-,N/A,,Clear,340,2012-12-04 17:55:00
12:15 PM,68.0,39.2,35,30.18,10.0,NNW,20.7,25.3,0.03,,Clear,330,2012-12-04 18:15:00
12:35 PM,69.8,37.4,31,30.17,10.0,North,21.9,26.5,0.03,,Clear,10,2012-12-04 18:35:00
12:55 PM,69.8,35.6,28,30.17,10.0,NNE,18.4,25.3,0.03,,Clear,20,2012-12-04 18:55:00
1:15 PM,69.8,35.6,28,30.17,10.0,North,15.0,23.0,N/A,,Clear,350,2012-12-04 19:15:00
1:35 PM,69.8,32.0,25,30.17,10.0,NNE,23.0,27.6,N/A,,Clear,20,2012-12-04 19:35:00
1:55 PM,69.8,32.0,25,30.17,10.0,NNE,19.6,25.3,N/A,,Clear,20,2012-12-04 19:55:00
2:15 PM,69.8,32.0,25,30.17,10.0,NW,17.3,23.0,N/A,,Clear,310,2012-12-04 20:15:00
2:35 PM,69.8,32.0,25,30.17,10.0,NNW,16.1,21.9,N/A,,Clear,330,2012-12-04 20:35:00
2:55 PM,69.8,26.6,20,30.17,10.0,North,18.4,27.6,N/A,,Clear,360,2012-12-04 20:55:00
3:15 PM,69.8,26.6,20,30.17,10.0,NNE,17.3,25.3,N/A,,Clear,20,2012-12-04 21:15:00
3:35 PM,69.8,26.6,20,30.18,10.0,NNE,18.4,-,N/A,,Clear,30,2012-12-04 21:35:00
3:55 PM,69.8,28.4,21,30.19,10.0,NW,12.7,23.0,N/A,,Clear,320,2012-12-04 21:55:00
4:15 PM,68.0,24.8,20,30.20,10.0,NNE,13.8,20.7,N/A,,Clear,20,2012-12-04 22:15:00
4:35 PM,68.0,21.2,17,30.20,10.0,NNE,16.1,23.0,N/A,,Clear,20,2012-12-04 22:35:00
4:55 PM,64.4,23.0,21,30.21,10.0,North,13.8,18.4,N/A,,Clear,10,2012-12-04 22:55:00
5:15 PM,62.6,23.0,22,30.22,10.0,NNW,9.2,-,N/A,,Clear,340,2012-12-04 23:15:00
5:35 PM,60.8,24.8,25,30.22,10.0,North,6.9,-,N/A,,Clear,350,2012-12-04 23:35:00
5:55 PM,57.2,26.6,31,30.23,10.0,NNW,8.1,-,N/A,,Clear,340,2012-12-04 23:55:00
6:15 PM,55.4,26.6,33,30.23,10.0,WNW,6.9,-,N/A,,Clear,300,2012-12-05 00:15:00
6:35 PM,53.6,26.6,35,30.24,10.0,WNW,8.1,-,N/A,,Clear,290,2012-12-05 00:35:00
6:55 PM,55.4,24.8,31,30.23,10.0,North,9.2,-,N/A,,Clear,360,2012-12-05 00:55:00
7:15 PM,55.4,23.0,29,30.24,10.0,North,10.4,-,N/A,,Clear,10,2012-12-05 01:15:00
7:35 PM,55.4,23.0,29,30.24,10.0,NNE,10.4,-,N/A,,Clear,20,2012-12-05 01:35:00
7:55 PM,53.6,24.8,33,30.25,10.0,NNW,8.1,-,N/A,,Clear,340,2012-12-05 01:55:00
8:15 PM,53.6,24.8,33,30.26,10.0,North,6.9,-,N/A,,Clear,10,2012-12-05 02:15:00
8:35 PM,51.8,24.8,35,30.26,10.0,NNW,8.1,-,N/A,,Clear,340,2012-12-05 02:35:00
8:55 PM,51.8,24.8,35,30.27,10.0,NNW,6.9,-,N/A,,Clear,340,2012-12-05 02:55:00
9:15 PM,50.0,24.8,37,30.27,10.0,North,5.8,-,N/A,,Clear,350,2012-12-05 03:15:00
9:35 PM,50.0,24.8,37,30.28,10.0,NW,6.9,-,N/A,,Clear,320,2012-12-05 03:35:00
9:55 PM,46.4,26.6,46,30.28,10.0,NNW,8.1,-,N/A,,Clear,330,2012-12-05 03:55:00
10:15 PM,46.4,28.4,50,30.28,10.0,NNE,9.2,-,N/A,,Clear,20,2012-12-05 04:15:00
10:35 PM,50.0,28.4,43,30.28,10.0,NNE,8.1,-,N/A,,Clear,30,2012-12-05 04:35:00
10:55 PM,48.2,28.4,46,30.29,10.0,NNE,9.2,-,N/A,,Clear,20,2012-12-05 04:55:00
11:15 PM,48.2,28.4,46,30.29,10.0,NNE,8.1,-,N/A,,Clear,20,2012-12-05 05:15:00
11:35 PM,44.6,30.2,57,30.29,10.0,NNE,5.8,-,N/A,,Clear,20,2012-12-05 05:35:00
11:55 PM,44.6,30.2,57,30.28,10.0,NNE,9.2,-,N/A,,Clear,20,2012-12-05 05:55:00